Theta_e
326 327 328 331 331 328 332 331 327 328 342 341 341 342 342 344 345 345 346 347 350 349 347 351 349 349 348 346 347 347 341 345 341 339 337 336 342 347 343 344 341 339 338 341 343 342 338 335 336
325 327 328 324 328 330 329 327 329 325 339 339 341 343 345 350 346 345 347 348 349 348 345 348 349 348 346 347 345 346 345 341 340 337 339 337 334 342 344 345 344 341 338 343 342 341 339 334 330
326 328 323 323 325 330 329 326 326 331 337 329 344 341 343 342 341 342 344 349 350 347 344 345 343 344 344 344 343 344 344 345 343 341 338 340 339 337 337 340 346 345 342 342 342 338 340 336 331
326 324 317 323 325 324 324 321 324 325 340 341 342 345 333 336 338 344 350 349 347 347 346 346 344 343 342 342 343 343 342 343 344 343 343 344 344 344 344 342 341 345 343 342 343 341 339 339 333
324 318 321 323 324 323 320 320 321 330 334 330 336 334 325 334 329 334 338 343 340 338 343 344 342 343 344 345 344 344 343 343 342 341 341 342 343 344 345 345 343 337 343 342 342 342 341 341 337
325 317 322 324 324 323 321 320 323 329 329 326 328 321 325 329 323 320 324 323 325 326 326 330 331 332 330 331 335 338 341 343 343 343 343 343 342 343 343 344 341 341 339 337 342 343 342 341 341
325 322 323 322 325 325 323 319 321 320 320 321 323 322 324 324 320 316 315 315 313 313 314 315 315 316 315 318 321 324 326 330 333 332 335 339 340 341 340 340 340 343 340 340 341 342 343 342 342
320 321 324 324 325 325 322 321 321 320 321 318 316 319 324 322 314 312 312 312 312 311 311 311 311 311 311 312 312 313 313 315 321 321 322 329 330 332 333 337 340 339 342 341 338 343 343 343 341
320 322 324 326 326 325 320 321 319 318 319 317 316 316 316 315 312 311 311 311 310 310 310 310 308 308 308 309 310 311 311 311 312 313 316 319 323 329 332 330 332 335 338 340 340 337 338 340 340
320 321 325 324 323 323 321 321 320 320 320 318 314 311 311 310 310 309 309 309 308 308 308 307 306 305 304 305 305 306 307 309 310 310 311 311 314 318 322 323 324 325 330 334 338 338 338 338 338
321 322 323 324 322 320 320 319 319 318 321 318 314 310 309 309 308 308 308 307 307 307 306 305 304 303 303 303 303 303 304 304 305 307 308 309 310 311 314 315 318 319 323 326 330 334 336 338 339
321 320 323 322 319 318 318 317 319 317 317 313 310 308 308 306 306 307 306 306 306 306 306 305 305 305 305 303 302 302 302 302 302 303 303 305 307 309 309 311 314 315 315 320 325 327 331 333 337
320 320 320 319 317 312 312 312 318 316 310 309 309 308 307 305 305 306 306 306 306 306 306 305 305 305 304 304 303 302 301 301 301 301 302 303 304 305 307 308 310 312 313 314 317 321 324 328 332
320 319 318 316 315 309 310 314 316 314 309 309 309 307 305 305 305 305 304 305 305 305 305 305 305 305 304 304 303 303 302 301 301 300 300 301 301 301 301 302 304 306 308 310 312 314 317 323 326
318 321 318 307 308 308 307 310 307 311 308 308 306 305 304 304 303 302 303 303 305 305 305 305 305 304 303 304 304 303 302 301 301 299 299 299 299 300 300 300 300 302 303 305 309 311 313 317 322
308 307 309 307 306 306 307 311 305 306 307 306 304 302 302 300 300 301 301 301 301 302 301 301 303 304 304 304 304 304 303 303 302 301 300 300 300 300 300 300 301 302 301 301 303 306 309 312 315
305 307 309 309 305 304 304 304 304 305 304 302 299 298 299 298 300 300 300 300 300 300 300 301 301 301 303 304 304 304 303 303 303 303 302 302 302 302 302 301 301 302 302 301 300 303 308 310 312
307 307 307 308 305 303 305 307 302 300 299 297 296 295 296 297 298 299 300 300 300 300 301 300 300 301 304 304 304 304 303 303 303 303 303 303 303 302 302 302 301 302 302 301 301 302 304 306 311
305 306 306 306 306 304 307 305 301 299 297 296 295 294 294 295 297 298 299 299 300 300 300 300 300 300 301 302 302 302 303 303 303 303 303 303 302 303 302 302 302 302 302 302 301 302 301 304 308
305 309 307 305 305 305 307 302 300 298 297 296 295 295 295 295 296 298 297 297 298 299 300 300 300 299 300 300 300 300 300 302 303 303 301 301 301 303 303 302 302 302 302 302 301 301 302 303 310
303 307 306 305 304 304 306 307 303 299 296 296 296 296 297 297 296 297 296 296 297 297 298 298 300 300 300 300 299 299 298 299 299 298 299 300 300 300 301 301 301 302 302 302 302 301 301 305 307
304 306 304 304 303 303 300 301 305 297 297 297 296 296 296 296 297 297 297 296 296 297 297 297 297 298 299 298 298 298 298 298 298 298 298 299 299 299 298 298 299 301 302 302 302 301 301 301 304
304 303 303 304 302 303 301 299 300 297 298 297 296 295 295 296 297 297 297 297 297 297 297 296 297 297 297 297 297 297 297 297 298 297 297 297 297 297 297 298 300 301 302 302 302 301 301 300 302
303 301 302 302 301 303 299 299 295 297 297 296 294 293 293 294 296 296 296 297 297 297 297 297 296 296 297 297 297 296 296 297 297 297 296 296 296 296 297 297 300 299 300 301 301 301 300 300 300
300 298 301 302 302 302 299 299 296 298 297 295 293 293 293 293 293 294 294 295 296 296 297 296 295 295 296 296 296 296 296 297 296 296 296 296 296 296 296 297 298 298 299 299 300 300 300 300 300
301 298 298 301 300 299 299 300 299 296 295 293 293 293 293 293 293 293 294 294 294 297 297 295 295 295 295 295 295 296 296 296 296 296 296 296 295 295 295 295 297 297 298 298 299 299 299 299 300
300 299 298 299 299 299 299 295 296 293 292 293 293 293 293 293 293 293 293 293 294 296 296 295 294 294 294 294 294 295 295 295 295 296 296 296 296 295 295 295 296 296 298 298 298 299 299 299 300
296 297 294 296 292 297 296 296 296 291 292 292 293 293 294 294 293 293 293 293 294 295 295 294 294 294 295 295 294 294 294 295 295 295 295 295 295 295 295 295 296 296 297 298 298 299 299 299 300
295 295 295 294 296 294 295 295 295 291 292 292 294 294 294 294 293 294 294 294 294 294 294 294 294 294 295 295 294 294 295 295 295 295 295 295 294 294 294 294 295 296 297 298 298 299 299 299 300
295 295 293 291 291 292 288 290 292 292 292 293 295 295 295 295 294 294 294 294 295 295 294 294 295 295 295 295 294 295 295 295 295 295 295 295 293 294 294 295 297 297 297 298 298 298 298 300 301
Wind_Speed
10 8 3 4 4 5 1 3 3 5 4 6 2 9 7 4 3 3 2 8 6 10 15 13 9 8 5 3 3 2 1 1 1 1 2 2 3 4 4 4 3 3 4 4 4 3 4 4 4
11 6 3 2 5 4 4 3 5 4 6 5 8 4 6 3 2 2 0 6 9 9 13 13 9 8 6 5 3 4 3 2 3 2 3 3 5 5 5 6 6 5 4 5 6 6 5 4 4
6 4 4 4 3 2 1 1 2 4 5 2 4 4 4 7 5 4 3 9 8 6 4 2 2 3 3 3 5 6 5 5 4 5 5 5 6 7 8 8 8 9 7 7 8 8 8 7 6
4 6 4 5 4 3 2 5 2 3 6 7 4 6 5 22 5 15 9 9 9 10 10 9 6 5 6 7 9 10 10 10 9 8 7 7 8 9 9 10 10 11 10 9 10 10 10 10 9
4 3 4 4 3 3 4 6 5 4 3 5 2 4 5 14 20 28 27 24 26 26 18 16 22 23 20 14 13 12 11 11 12 14 13 12 11 11 12 13 13 14 13 12 13 13 13 13 12
4 3 5 3 1 3 5 4 5 5 4 3 6 6 5 13 25 30 32 33 29 28 27 26 23 23 24 26 25 23 17 16 13 13 13 14 14 15 15 16 17 17 16 17 17 16 16 16 16
5 4 3 3 1 3 5 7 3 3 4 5 2 5 3 11 19 25 30 30 31 30 29 28 27 26 27 27 26 26 25 24 23 24 21 17 16 16 17 18 17 19 19 20 20 20 20 19 19
4 4 3 3 1 1 6 6 2 5 3 6 5 3 4 5 17 27 29 30 32 31 30 29 28 29 27 28 26 25 25 23 22 23 24 19 19 18 20 18 16 18 19 22 23 23 23 22 22
3 5 2 1 1 2 6 5 5 3 6 5 6 5 8 13 17 27 30 31 30 31 29 28 28 28 27 26 27 24 27 24 25 25 24 24 24 19 19 21 20 17 17 20 24 25 26 26 26
5 4 3 1 1 2 4 3 2 3 4 5 8 12 17 16 19 23 20 20 26 27 27 26 27 27 27 27 26 26 24 25 25 26 26 25 23 22 20 20 20 21 19 18 17 22 26 27 29
2 4 4 1 1 3 4 5 2 7 1 4 7 6 7 14 18 19 20 22 22 22 24 25 25 26 28 29 27 26 25 25 25 25 25 23 23 22 21 21 23 23 22 20 21 20 20 24 31
5 4 2 2 6 5 5 6 3 6 4 8 9 7 8 11 13 17 19 18 19 19 19 20 22 24 26 28 28 25 24 24 25 25 25 25 25 24 23 23 22 22 23 22 20 21 23 24 24
5 3 4 5 7 9 7 7 5 6 8 11 13 10 8 10 14 16 16 16 15 16 17 19 21 23 24 25 26 25 24 24 25 24 23 22 23 25 24 24 23 22 22 22 23 23 23 24 25
2 6 6 9 7 8 8 7 4 4 7 10 10 8 8 11 12 15 17 14 14 14 15 17 18 18 20 22 21 20 22 24 24 23 22 22 23 24 25 27 26 24 24 25 24 23 24 24 23
4 4 5 10 9 5 5 9 6 3 8 10 10 8 8 14 23 20 19 19 13 13 14 14 16 18 21 20 16 17 20 20 20 20 21 22 23 24 25 26 26 25 25 25 25 25 24 23 21
6 6 5 3 11 7 5 5 11 7 9 9 9 8 10 11 16 17 17 16 15 13 17 19 18 19 18 12 15 16 16 17 18 19 20 21 21 22 25 26 26 25 26 26 25 24 26 25 24
9 3 4 5 3 5 8 5 15 9 12 11 8 8 8 7 12 14 14 16 17 18 19 20 22 23 22 14 15 16 16 16 17 18 18 19 22 24 25 25 25 24 26 27 25 25 22 25 27
6 5 4 5 7 8 7 6 9 10 14 8 8 8 9 9 8 14 13 14 14 13 14 18 21 24 20 18 21 23 25 25 20 21 23 23 22 23 26 25 24 24 25 28 26 24 25 23 23
5 2 5 3 3 6 5 6 6 5 10 11 9 9 10 10 15 18 20 21 18 18 18 18 20 20 20 17 18 21 25 28 24 25 23 26 27 25 25 24 24 23 24 24 24 22 25 27 21
2 1 4 6 4 4 2 5 3 8 7 8 13 15 15 14 15 24 28 30 32 27 26 24 21 21 21 20 20 22 23 25 26 29 28 28 27 26 28 28 28 25 24 25 23 20 22 20 16
4 1 3 6 4 1 6 2 0 5 13 18 18 16 19 18 18 22 27 28 31 34 34 34 30 26 22 21 23 25 27 25 25 27 26 26 23 23 24 27 30 29 25 24 24 21 18 16 20
5 2 8 9 3 4 4 3 2 6 15 16 18 19 19 18 18 24 26 28 30 34 38 36 30 29 21 22 24 25 28 27 29 26 26 25 23 25 27 28 29 30 28 24 24 24 20 20 19
6 17 10 4 3 3 0 1 3 9 12 15 15 16 17 17 18 19 27 30 31 35 36 36 32 26 26 29 30 31 32 32 28 28 29 29 29 28 28 29 28 27 25 25 25 24 23 24 22
9 7 2 3 3 2 3 2 2 4 8 11 11 16 18 18 17 25 31 35 35 37 37 39 37 36 34 33 35 33 30 28 27 28 30 33 33 32 30 28 26 25 25 25 26 25 24 25 25
10 6 5 6 5 3 2 4 4 3 3 7 14 18 19 21 21 21 30 32 34 34 35 34 34 37 40 39 38 34 27 29 31 32 32 33 31 31 31 30 28 28 24 24 26 27 26 25 26
5 5 4 6 4 10 8 1 3 3 3 11 14 21 23 24 21 21 33 32 33 35 36 36 37 36 40 41 42 39 41 37 36 35 35 34 32 31 31 32 31 30 28 26 26 26 26 25 26
6 6 2 4 1 2 3 5 5 17 27 28 23 23 23 23 21 21 33 34 34 32 36 36 38 39 37 38 39 41 41 37 37 38 37 36 36 33 30 31 32 34 34 31 27 26 25 25 28
8 4 5 4 5 6 3 3 5 16 24 25 26 27 28 26 25 23 32 35 36 35 35 34 37 37 39 40 39 37 38 40 39 38 35 34 36 34 35 34 33 33 31 30 28 27 26 26 27
6 4 4 2 3 3 5 3 2 14 19 19 25 25 24 25 24 22 32 35 35 38 37 37 36 36 38 38 38 37 37 36 34 35 35 33 36 35 35 35 32 32 30 30 29 28 29 28 28
5 2 3 4 6 2 3 6 3 17 19 19 23 24 24 23 23 28 33 34 36 37 38 38 39 38 38 38 38 38 38 37 38 36 31 35 33 34 33 31 31 32 31 29 29 28 26 22 24
Wind_Direction
351 347 1 35 53 64 17 5 307 10 49 318 6 80 111 74 40 146 301 206 250 163 174 182 177 189 208 212 197 191 201 224 282 271 220 216 225 210 215 223 225 199 196 194 188 187 174 164 159
349 346 40 70 78 63 304 340 9 331 165 175 69 50 62 55 60 119 64 168 170 160 174 183 179 197 209 220 230 231 243 252 274 270 257 239 239 225 221 237 236 239 227 216 222 218 221 205 180
358 19 74 79 90 114 187 289 294 355 356 325 90 60 45 342 339 350 320 153 146 104 109 101 331 291 267 277 287 268 270 261 281 285 273 272 267 259 250 246 247 237 239 231 233 227 228 224 210
351 15 32 76 84 340 292 320 252 203 33 46 109 59 73 22 20 29 99 102 99 89 75 42 12 346 341 332 326 319 310 299 295 294 291 283 274 265 261 260 252 250 247 246 238 243 235 235 226
43 55 60 72 35 321 331 296 319 76 77 345 334 101 67 19 40 67 74 81 78 71 69 61 49 52 49 36 21 4 342 327 321 313 303 294 287 279 275 268 266 254 254 248 246 241 242 238 236
41 86 63 112 157 313 310 0 3 38 30 50 63 86 60 27 50 64 75 73 70 66 62 57 52 46 42 38 32 27 19 12 356 337 322 313 305 299 290 287 277 269 261 257 250 248 242 240 239
106 77 129 135 38 22 331 322 62 48 12 354 24 68 100 29 59 67 71 70 67 62 58 52 48 46 44 39 37 32 29 25 20 15 8 357 346 326 311 295 285 281 274 267 259 252 245 242 239
98 87 72 19 2 32 322 358 21 58 27 322 5 96 109 55 72 75 71 68 64 60 55 50 46 46 42 42 38 36 33 30 24 20 18 13 10 359 352 341 327 290 284 279 271 263 254 246 242
106 61 83 177 151 270 327 37 15 32 68 42 25 50 84 89 82 73 66 65 61 57 51 44 42 44 37 43 33 40 29 31 28 25 20 16 20 16 7 2 353 333 319 297 275 274 266 257 252
75 87 162 236 188 282 334 27 334 83 71 50 73 51 80 86 76 73 67 63 62 58 50 45 41 38 37 33 28 23 21 20 20 15 13 12 12 14 8 1 354 352 343 327 311 281 274 265 260
90 128 160 224 305 8 0 14 36 119 132 159 144 123 80 84 74 77 76 77 74 62 49 40 39 37 32 25 18 17 15 13 12 10 6 2 360 360 358 354 350 350 349 338 325 318 302 287 268
81 45 105 30 35 27 5 311 43 44 12 83 97 102 91 73 70 80 81 78 72 57 43 35 28 21 16 11 12 7 7 8 8 6 5 2 358 355 354 354 352 346 343 341 335 324 314 310 290
67 39 49 60 54 41 11 5 47 61 61 73 89 83 79 82 82 79 80 70 56 45 35 26 14 10 5 5 3 1 1 1 359 358 2 2 357 352 349 345 347 348 342 337 331 329 321 312 306
7 63 40 24 16 37 17 357 58 45 91 67 73 65 53 59 60 53 45 42 36 32 23 9 3 359 355 355 356 0 357 355 348 346 351 353 355 352 347 343 340 338 335 333 330 326 325 318 311
52 67 47 12 343 23 320 32 33 1 74 73 52 42 48 36 38 44 45 36 16 13 0 351 344 343 338 338 344 351 354 352 349 348 348 348 351 353 350 345 342 342 335 325 321 322 320 317 314
39 49 37 7 1 332 19 238 17 350 83 59 50 40 44 30 44 43 37 29 24 4 353 347 335 326 316 312 329 330 333 343 344 347 346 345 347 348 348 345 342 338 339 336 327 324 319 314 313
15 342 351 346 75 329 33 346 356 38 77 59 44 38 37 21 24 19 20 16 8 0 352 342 344 330 313 291 302 305 304 310 328 332 331 335 334 337 336 340 335 334 334 336 334 326 324 317 313
315 332 313 268 338 53 58 41 21 37 67 58 38 21 12 0 344 349 347 349 352 354 357 353 347 349 330 302 310 311 311 309 310 323 323 320 320 325 325 327 328 326 328 331 333 332 321 314 313
230 261 291 282 347 61 67 69 27 11 48 35 19 5 352 341 329 340 339 336 336 340 341 347 351 348 350 336 311 319 310 307 303 316 309 313 311 301 314 310 314 315 313 318 325 326 330 316 316
52 190 286 299 8 78 103 79 42 27 37 27 17 8 0 351 349 347 347 347 344 334 334 330 334 335 334 328 324 324 325 311 293 304 311 309 309 305 294 300 301 299 301 304 314 316 322 311 316
335 212 274 250 330 105 146 131 89 80 36 32 19 12 5 358 349 344 343 343 343 342 339 332 318 317 312 313 316 317 315 307 301 308 310 307 307 308 304 300 299 295 290 288 297 303 308 305 296
305 236 289 293 142 189 135 255 85 8 28 24 14 10 359 347 337 335 334 333 334 333 336 335 332 319 306 312 311 306 304 301 303 308 313 309 305 305 305 301 298 291 286 279 283 289 293 299 286
275 306 299 290 168 135 114 115 5 49 15 7 1 350 341 332 331 328 328 327 323 335 332 331 340 336 322 320 319 309 302 304 304 310 313 313 306 301 303 297 294 296 291 282 280 277 283 296 278
294 325 31 65 90 347 158 75 36 27 357 346 340 344 337 331 323 320 323 324 325 325 326 323 334 329 328 327 324 318 308 303 303 305 309 312 308 303 300 296 289 291 289 285 282 273 278 289 285
18 4 349 353 3 255 206 346 71 65 357 329 336 338 339 338 335 330 324 322 324 320 321 314 321 322 326 326 324 322 312 307 302 298 301 304 300 301 304 297 289 286 284 284 279 276 278 282 284
26 62 102 291 299 299 309 224 159 175 266 331 327 341 343 341 331 321 314 314 316 317 319 317 317 313 315 318 317 319 317 311 308 305 303 299 292 297 302 299 292 286 277 281 283 281 279 275 283
342 34 260 267 310 351 310 67 297 351 1 352 338 329 327 327 324 320 314 314 315 313 313 311 311 310 308 307 304 307 308 305 299 300 299 295 298 296 293 292 287 289 277 279 281 278 279 274 283
89 311 10 22 341 310 328 25 302 355 347 343 334 329 325 325 321 318 318 313 312 311 310 305 308 305 306 306 299 298 298 295 295 293 285 285 292 291 293 291 288 287 283 281 278 275 276 271 273
12 19 37 156 155 225 308 282 323 354 338 331 324 322 321 318 316 317 315 314 312 312 310 309 309 305 304 303 300 299 298 293 295 291 283 284 286 288 284 285 284 282 278 277 272 268 272 260 256
96 69 106 115 287 239 166 276 347 344 332 325 320 318 317 314 313 315 315 314 314 313 313 311 309 306 305 304 303 303 299 300 301 295 287 296 283 286 276 279 283 279 273 272 269 263 252 254 244